TimeCDT,TemperatureF,Dew PointF,Humidity,Sea Level PressureIn,VisibilityMPH,Wind Direction,Wind SpeedMPH,Gust SpeedMPH,PrecipitationIn,Events,Conditions,WindDirDegrees,DateUTC
12:52 AM,60.1,55.9,86,29.87,8.0,ESE,5.8,-,N/A,,Overcast,110,2011-10-12 05:52:00
1:52 AM,61.0,54.0,78,29.87,10.0,South,6.9,-,N/A,,Scattered Clouds,170,2011-10-12 06:52:00
2:52 AM,61.0,54.0,78,29.85,10.0,SE,6.9,-,N/A,,Partly Cloudy,140,2011-10-12 07:52:00
3:52 AM,57.9,53.1,84,29.82,10.0,SSE,4.6,-,N/A,,Clear,150,2011-10-12 08:52:00
4:52 AM,57.9,53.1,84,29.82,9.0,East,3.5,-,N/A,,Clear,100,2011-10-12 09:52:00
5:52 AM,57.0,54.0,89,29.81,7.0,SE,5.8,-,N/A,,Overcast,140,2011-10-12 10:52:00
6:52 AM,57.9,53.1,84,29.81,7.0,ESE,8.1,-,N/A,,Clear,110,2011-10-12 11:52:00
7:52 AM,60.1,55.0,83,29.81,4.0,ESE,6.9,-,N/A,,Haze,120,2011-10-12 12:52:00
9:52 AM,63.0,55.9,78,29.82,6.0,South,9.2,-,N/A,Thunderstorm,Unknown,180,2011-10-12 14:52:00
10:15 AM,62.6,55.4,77,29.81,3.0,WSW,6.9,-,0.00,Rain,Light Rain,240,2011-10-12 15:15:00
10:22 AM,60.8,55.4,82,29.81,1.8,SW,5.8,-,0.00,Rain-Thunderstorm,Rain,230,2011-10-12 15:22:00
10:41 AM,60.8,57.2,88,29.80,0.8,Calm,Calm,-,N/A,Rain,Heavy Rain,0,2011-10-12 15:41:00
10:48 AM,62.6,57.2,82,29.80,2.5,WSW,3.5,-,N/A,Rain-Thunderstorm,Light Thunderstorms and Rain,250,2011-10-12 15:48:00
10:52 AM,62.1,57.9,86,29.79,5.0,WSW,3.5,-,N/A,Rain-Thunderstorm,Light Thunderstorms and Rain,250,2011-10-12 15:52:00
11:14 AM,62.6,57.2,82,29.80,8.0,SSE,4.6,-,0.01,,Mostly Cloudy,150,2011-10-12 16:14:00
11:52 AM,64.0,59.0,84,29.78,7.0,Calm,Calm,-,0.02,,Mostly Cloudy,0,2011-10-12 16:52:00
12:27 PM,62.6,57.2,82,29.78,1.8,SW,4.6,-,0.01,Rain,Heavy Rain,230,2011-10-12 17:27:00
12:44 PM,62.6,59.0,88,29.78,2.5,Calm,Calm,-,0.02,Rain,Light Rain,0,2011-10-12 17:44:00
12:52 PM,63.0,59.0,87,29.77,7.0,Calm,Calm,-,0.02,Rain,Light Rain,0,2011-10-12 17:52:00
1:52 PM,64.0,59.0,84,29.73,6.0,ENE,3.5,-,0.01,,Haze,70,2011-10-12 18:52:00
2:10 PM,64.4,59.0,83,29.73,7.0,ENE,4.6,-,0.01,,Overcast,60,2011-10-12 19:10:00
2:27 PM,64.4,60.8,88,29.73,7.0,East,8.1,-,0.01,,Overcast,80,2011-10-12 19:27:00
2:52 PM,64.0,60.1,87,29.72,6.0,ESE,9.2,-,0.01,Rain,Light Rain,110,2011-10-12 19:52:00
4:07 PM,64.4,60.8,88,29.69,10.0,ESE,6.9,-,N/A,,Scattered Clouds,110,2011-10-12 21:07:00
4:52 PM,64.9,57.9,78,29.66,10.0,SSE,6.9,-,0.01,,Clear,150,2011-10-12 21:52:00
5:52 PM,63.0,57.9,84,29.66,10.0,East,5.8,-,0.01,,Clear,100,2011-10-12 22:52:00
6:52 PM,62.1,57.9,86,29.66,8.0,East,6.9,-,N/A,,Overcast,100,2011-10-12 23:52:00
7:52 PM,62.1,59.0,90,29.66,6.0,ESE,6.9,-,0.01,,Mostly Cloudy,120,2011-10-13 00:52:00
9:14 PM,59.0,55.4,88,29.67,2.0,SW,5.8,-,N/A,Rain,Rain,230,2011-10-13 02:14:00
9:24 PM,59.0,55.4,88,29.65,4.0,SSW,3.5,-,N/A,Rain,Light Rain,200,2011-10-13 02:24:00
10:40 PM,57.2,55.4,94,29.64,7.0,SSW,6.9,-,N/A,Rain,Light Rain,200,2011-10-13 03:40:00
10:52 PM,57.9,55.0,90,29.64,8.0,South,5.8,-,N/A,Rain,Light Rain,180,2011-10-13 03:52:00
11:49 PM,57.2,53.6,88,29.62,9.0,Calm,Calm,-,0.00,,Mostly Cloudy,0,2011-10-13 04:49:00
11:52 PM,57.9,55.0,90,29.62,9.0,Calm,Calm,-,0.00,,Mostly Cloudy,0,2011-10-13 04:52:00